• Join FlightAware (Why Join?)
  • Login
  • US Flag GB Flag 
21:44 EDT


 

Airport Tracker/Info


-or-


 

Live Flight TrackerFlight Track Log ✈ EGF3681 ✈ 01-Apr-2013 ✈ KOKC - KORD

Flight Track Log - Related Links

Times and Time Zones

All times are in EDT time to prevent confusion due to time zone crossing. See the EGF3681 flight status page for this flight to view local times or setup timezone preferences in your user account.

Time Position Orientation Groundspeed Altitude Reporting Facility
EDT Latitude Longitude Course Direction KTS MPH feet Rate Location/Type
15:25 35.4019 -97.6097 58° Northeast 138 159 2,100  Level Fort Worth Center
15:26 35.4500 -97.5994 10° North 203 234 3,700 2,040 Climbing Fort Worth Center
15:27 35.5456 -97.2487 60° Northeast  Level FlightAware Approximate
15:28 35.5970 -97.1292 66° East  Level FlightAware Approximate
15:28 35.5325 -97.4814 49° Northeast 279 321 8,000  Level Kansas City Center
15:29 35.6419 -97.0056 66° East  Level FlightAware Approximate
15:29 35.5578 -97.3792 73° East 303 349 10,800  Level Kansas City Center
15:30 35.6973 -96.8887 58° Northeast  Level FlightAware Approximate
15:30 35.5886 -97.2667 71° East 338 389 12,800  Level Kansas City Center
15:31 35.6367 -97.1533 62° Northeast 365 420 14,900 1,980 Climbing Kansas City Center
15:32 35.6869 -97.0322 63° Northeast 388 447 16,900 1,800 Climbing Kansas City Center
15:33 35.7389 -96.9058 63° Northeast 407 468 18,700 1,740 Climbing Kansas City Center
15:34 35.8039 -96.7483 63° Northeast 426 490 20,600 1,620 Climbing Kansas City Center
15:35 35.8608 -96.6103 63° Northeast 445 512 22,100 1,440 Climbing Kansas City Center
15:36 35.9192 -96.4692 63° Northeast 459 528 23,600 1,500 Climbing Kansas City Center
15:37 36.0064 -96.3358 51° Northeast 460 529 25,300 1,500 Climbing Kansas City Center
15:38 36.0967 -96.2219 46° Northeast 462 532 26,800 1,440 Climbing Kansas City Center
15:39 36.1858 -96.1086 46° Northeast 460 529 28,300 1,200 Climbing Kansas City Center
15:40 36.2758 -95.9922 46° Northeast 463 533 29,300 960 Climbing Kansas City Center
15:41 36.3683 -95.8736 46° Northeast 471 542 30,300 1,020 Climbing Kansas City Center
15:42 36.4683 -95.7439 46° Northeast 478 550 31,400 900 Climbing Kansas City Center
15:43 36.5625 -95.6231 46° Northeast 485 558 32,200 720 Climbing Kansas City Center
15:44 36.6544 -95.5028 46° Northeast 490 564 33,000 780 Climbing Kansas City Center
15:45 36.7497 -95.3775 46° Northeast 491 565 33,800 780 Climbing Kansas City Center
15:46 36.8450 -95.2528 46° Northeast 492 566 34,600 840 Climbing Kansas City Center
15:47 36.9583 -95.1031 47° Northeast 492 566 35,600 840 Climbing Kansas City Center
15:48 37.0519 -94.9794 46° Northeast 488 562 36,400 660 Climbing Kansas City Center
15:49 37.1450 -94.8561 47° Northeast 487 560 37,000 240 Climbing Kansas City Center
15:50 37.2408 -94.7325 46° Northeast 491 565 37,000  Level Kansas City Center
15:51 37.3358 -94.6036 47° Northeast 498 573 37,000  Level Kansas City Center
15:52 37.4317 -94.4742 47° Northeast 503 579 37,000  Level Kansas City Center
15:53 37.5258 -94.3506 46° Northeast 493 567 37,000  Level Kansas City Center
15:54 37.6192 -94.2236 47° Northeast 492 566 37,000  Level Kansas City Center
15:55 37.7278 -94.0758 47° Northeast 490 564 37,000  Level Kansas City Center
15:56 37.8203 -93.9486 47° Northeast 490 564 37,000  Level Kansas City Center
15:57 37.9139 -93.8208 47° Northeast 490 564 37,000  Level Kansas City Center
15:58 38.0064 -93.6936 47° Northeast 489 563 37,000  Level Kansas City Center
16:00 38.1003 -93.5650 47° Northeast 491 565 37,000  Level Kansas City Center
16:01 38.1936 -93.4347 48° Northeast 494 568 37,000  Level Kansas City Center
16:02 38.3042 -93.2794 48° Northeast 491 565 37,000  Level Kansas City Center
16:03 38.3986 -93.1483 47° Northeast 493 567 37,000  Level Kansas City Center
16:04 38.4936 -93.0147 48° Northeast 499 574 37,000  Level Kansas City Center
16:05 38.5867 -92.8833 48° Northeast 496 571 37,000  Level Kansas City Center
16:06 38.6792 -92.7511 48° Northeast 494 568 37,000  Level Kansas City Center
16:07 38.7711 -92.6214 48° Northeast 492 566 37,000  Level Kansas City Center
16:08 38.8653 -92.4878 48° Northeast 494 568 37,000  Level Kansas City Center
16:09 38.9586 -92.3525 48° Northeast 500 575 37,000  Level Kansas City Center
16:10 39.0525 -92.2178 48° Northeast 501 577 37,000  Level Kansas City Center
16:11 39.1608 -92.0539 50° Northeast 499 574 37,000  Level Kansas City Center
16:12 39.2439 -91.9064 54° Northeast 500 575 37,000  Level Kansas City Center
16:13 39.3314 -91.7928 45° Northeast 492 566 37,000  Level Kansas City Center
16:14 39.4439 -91.7608 12° North 431 496 37,000  Level Kansas City Center
16:15 39.5756 -91.7636 359° North 406 467 37,000  Level Kansas City Center
16:16 39.6808 -91.6936 27° Northeast 430 495 37,000 -180 Level Kansas City Center
16:17 39.7608 -91.5619 52° Northeast 469 540 36,700 -1,140 Descending Kansas City Center
16:18 39.8286 -91.4108 60° Northeast 485 558 34,700 -1,800 Descending Kansas City Center
16:19 39.8953 -91.2597 60° Northeast 487 560 33,100 -840 Descending Kansas City Center
16:20 39.9744 -91.0750 61° Northeast 491 565 33,000 -60 Descending Kansas City Center
16:21 40.0358 -90.9358 60° Northeast 498 573 33,000  Level Kansas City Center
16:22 40.1189 -90.7428 61° Northeast 505 581 33,000  Level Kansas City Center
16:22 40.1256 -90.7261 62° Northeast 506 582 33,000  Level Chicago Center
16:24 40.2161 -90.5686 53° Northeast 493 567 33,000  Level Chicago Center
16:25 40.3183 -90.4631 38° Northeast 469 540 33,000  Level Chicago Center
16:26 40.4197 -90.3586 38° Northeast 463 533 33,000  Level Chicago Center
16:27 40.5319 -90.2436 38° Northeast 478 550 33,000 -420 Level Chicago Center
16:28 40.6628 -90.1089 38° Northeast 496 571 32,200 -1,740 Descending Chicago Center
16:29 40.7708 -89.9975 38° Northeast 497 572 29,500 -2,700 Descending Chicago Center
16:30 40.8700 -89.8944 38° Northeast 475 547 26,700 -2,520 Descending Chicago Center
16:31 40.9653 -89.7922 39° Northeast 447 514 24,400 -1,320 Descending Chicago Center
16:32 41.0633 -89.6908 38° Northeast 433 498 24,000 -480 Descending Chicago Center
16:33 41.1567 -89.5892 39° Northeast 432 497 23,500 -780 Descending Chicago Center
16:34 41.2239 -89.4336 60° Northeast 475 547 22,500 -1,440 Descending Chicago Center
16:35 41.2850 -89.2811 62° Northeast 470 541 20,600 -2,280 Descending Chicago Center
16:36 41.3272 -89.1108 72° East 444 511 17,900 -1,800 Descending Chicago Center
16:37 41.3456 -88.9589 81° East 421 484 17,000 -1,500 Descending Chicago Center
16:38 41.3956 -88.8272 63° Northeast 409 471 14,800 -2,820 Descending Chicago Center
16:39 41.4731 -88.6997 51° Northeast 371 427 11,200 -1,800 Descending Chicago Center
16:40 41.5325 -88.5994 52° Northeast 346 398 11,100 -120 Descending Chicago Center
16:41 41.5917 -88.4956 53° Northeast 351 404 11,000  Descending Chicago Center
16:42 41.6519 -88.3928 52° Northeast 349 402 11,100  Climbing Chicago Center
16:43 41.7103 -88.2922 52° Northeast 343 395 11,000 -60 Descending Chicago Center
16:44 41.7703 -88.1911 51° Northeast 344 396 11,000 -300 Level Chicago Center
16:45 41.8253 -88.0944 53° Northeast 330 380 10,500 -960 Descending Chicago Center
16:46 41.8803 -87.9894 55° Northeast 287 330 9,100 -1,560 Descending Chicago Center
16:47 41.8833 -87.9167 87° East 289 333 7,800 -1,440 Descending Chicago TRACON
16:48 41.8833 -87.8000 90° East 243 280 6,600 -1,620 Descending Chicago TRACON
16:49 41.8833 -87.7333 90° East 229 264 4,600 -1,440 Descending Chicago TRACON
16:50 41.9167 -87.6833 48° Northeast 233 268 4,100 -600 Descending Chicago TRACON